Regional Weather Roundup
Issued by NWS

Home | Current Version | Previous Version | Graphics & Text | Print | Product List | Glossary On
Versions: 1 2 3 4 5 6 7 8 9 10 11 12 13 14 15 16 17 18 19 20 21 22 23 24 25 26 27 28 29 30 31 32 33 34 35 36 37 38 39 40 41 42 43 44 45 46 47 48 49 50
000
ASUS43 KBIS 300120
RWRND

NORTH DAKOTA REGIONAL WEATHER ROUNDUP
NATIONAL WEATHER SERVICE BISMARCK ND
700 PM CST THU JAN 29 2015

NOTE: "FAIR" INDICATES FEW OR NO CLOUDS BELOW 12,000 FEET WITH NO
SIGNIFICANT WEATHER AND/OR OBSTRUCTIONS TO VISIBILITY.


NDZ001>003-009>011-017-300200-
NORTHWEST NORTH DAKOTA

CITY           SKY/WX    TMP DP  RH WIND       PRES   REMARKS
WILLISTON      CLEAR     26  20  77 SE7       30.36F WCI  18
MINOT          CLEAR     13   9  84 E6        30.45S WCI   4
MINOT AFB      CLEAR     12  11  97 SE9       30.45S WCI   0
$$

NDZ018>021-031>035-040>046-300200-
SOUTHWEST NORTH DAKOTA

CITY           SKY/WX    TMP DP  RH WIND       PRES   REMARKS
BISMARCK       CLEAR     21  18  88 E7        30.47S WCI  12
DICKINSON      CLEAR     27  18  69 E9        30.35S WCI  18
GARRISON         N/A     19  15  84 E7        30.43S WCI  10
HETTINGER ARPT CLEAR     25  17  72 CALM      30.38S
$$

NDZ004>008-012>016-024-026-027-054-300200-
NORTHEAST NORTH DAKOTA

CITY           SKY/WX    TMP DP  RH WIND       PRES   REMARKS
GRAND FORKS    PTCLDY     6   0  76 N6        30.57S WCI  -4
GRND FRKS AFB  CLEAR      6   0  79 NE5       30.58R WCI  -3
DEVILS LAKE    CLOUDY    10   3  72 E5        30.50S WCI   2
$$

NDZ022-023-025-028>030-036>039-047>053-300200-
SOUTHEAST NORTH DAKOTA

CITY           SKY/WX    TMP DP  RH WIND       PRES   REMARKS
FARGO          CLEAR     12   4  70 N7        30.56R WCI   1
JAMESTOWN      CLOUDY    18  12  77 NW8       30.50R WCI   8
$$



USA.gov is the U.S. government's official web portal to all federal, state and local government web resources and services.